sat.trackr.live / text

‹ back to catalog

STARLINK-5307

NORAD 55658 · 2023-021AG

PAYLOAD ACTIVE UNKNOWN

§ Identity

Operator
Country
US
Launch date
2023-02-17
Launch site
AFWTR
Launch vehicle
Mass (kg)
RCS (m²)

Purposes: comms

External: N2YO · Heavens-Above · Gunter

§ Orbital elements

Epoch: 2026-09-20T21:24:03.604896Z

Period
96.11 min
Inclination
70.0001°
Eccentricity
0.0002698
Mean motion
14.98330502 rev/d
Perigee alt
570.2 km
Apogee alt
573.9 km
Semi-major
6,950.2 km
B*
8.7807e-6
RAAN
52.1657°
Arg perigee
269.8500°
Mean anomaly
90.2350°
Rev number
19,803

§ Raw data

STARLINK-53071 55658U 23021AG  26263.89170839  .00000012  00000+0  87807-5 0  99982 55658  70.0001  52.1657 0002698 269.8500  90.2350 14.98330502198035

JSON: /api/v1/satellites/55658 · /tle

For live sub-satellite position, see the globe view (requires WebGL).

§ Visibility from observer

Set your observer location to see the next 7 days of passes ≥ 10°. The values pass through the URL so the page stays shareable.

No JS? Fill the form by hand. The geolocation button needs JavaScript.